Fergus Falls, MN

6:37 PM CST on February 14, 2016 (GMT -0600)
Fergus Falls Municipal-Mickelson

Weather History for KFFM - March, 2014

Change the Weather History Date:

Sunday, March 9, 2014

  Actual Average Record
Temperature  
Mean Temperature 32 °F -  
Max Temperature 42 °F 33 °F 51 °F (2004)
Min Temperature 21 °F 14 °F -20 °F (1951)
Degree Days  
Heating Degree Days 34    
Moisture  
Dew Point 27 °F    
Average Humidity 76    
Maximum Humidity 87    
Minimum Humidity 65    
Precipitation  
Precipitation 0.00 in - - ()
Sea Level Pressure  
Sea Level Pressure 29.70 in    
Wind  
Wind Speed 10 mph (South)    
Max Wind Speed 16 mph    
Max Gust Speed -    
Visibility 10 miles    
Events      
Averages and records for this station are not official NWS values.
T = Trace of Precipitation, MM = Missing Value Source: NWS Daily Summary

Daily Weather History Graph

Daily Weather History Graph

Search for Another Location

Airport or City:

Trip Planner

Search our weather history database for the weather conditions in past years. The results will help you decide how hot, cold, wet, or windy it might be!

Date:

Astronomy

Mar. 09, 2014 Rise Set
Actual Time 7:48 AM CDT 7:22 PM CDT
Civil Twilight 7:18 AM CDT 7:52 PM CDT
Nautical Twilight 6:44 AM CDT 8:27 PM CDT
Astronomical Twilight 6:08 AM CDT 9:02 PM CDT
Moon 1:01 PM CDT (3/9) 3:29 AM CDT (3/9)
Length of Visible Light 12h 33m
Length of Day
11h 33m
First Quarter, 61% of the Moon is Illuminated
Mar 9
First Quarter
Mar 16
Full
Mar 23
Last Quarter
Mar 30
New
Apr 7
First Quarter

Hourly Weather History & Observations

Time (CDT) Temp. Windchill Dew Point Humidity Pressure Visibility Wind Dir Wind Speed Gust Speed Precip Events Conditions
12:12 AM 21.2 °F 8.3 °F 15.8 °F 80% 29.98 in 10.0 mi SSE 13.8 mph - N/A   Clear
12:33 AM 21.2 °F 7.3 °F 15.8 °F 80% 29.97 in 10.0 mi South 16.1 mph - N/A   Clear
12:53 AM 21.2 °F 8.3 °F 15.8 °F 80% 29.95 in 10.0 mi SSE 13.8 mph - N/A   Clear
1:12 AM 21.2 °F 8.3 °F 15.8 °F 80% 29.94 in 10.0 mi SSE 13.8 mph - N/A   Clear
1:33 AM 21.2 °F 7.3 °F 15.8 °F 80% 29.92 in 10.0 mi SSE 16.1 mph - N/A   Clear
1:53 AM 21.2 °F 7.8 °F 15.8 °F 80% 29.92 in 10.0 mi SSE 15.0 mph - N/A   Clear
3:13 AM 21.2 °F 7.8 °F 15.8 °F 80% 29.89 in 10.0 mi SSE 15.0 mph - N/A   Clear
3:33 AM 21.2 °F 7.8 °F 15.8 °F 80% 29.88 in 10.0 mi SSE 15.0 mph - N/A   Clear
3:53 AM 21.2 °F 8.9 °F 15.8 °F 80% 29.87 in 10.0 mi South 12.7 mph - N/A   Clear
4:13 AM 23.0 °F 11.1 °F 15.8 °F 74% 29.86 in 10.0 mi South 12.7 mph - N/A   Clear
4:33 AM 23.0 °F 11.1 °F 17.6 °F 80% 29.84 in 10.0 mi SSE 12.7 mph - N/A   Clear
4:52 AM 24.8 °F 13.4 °F 17.6 °F 74% 29.83 in 10.0 mi SSE 12.7 mph - N/A   Clear
5:13 AM 24.8 °F 12.4 °F 19.4 °F 80% 29.81 in 10.0 mi South 15.0 mph - N/A   Clear
5:33 AM 24.8 °F 13.4 °F 19.4 °F 80% 29.80 in 10.0 mi SSE 12.7 mph - N/A   Clear
5:52 AM 24.8 °F 14.0 °F 19.4 °F 80% 29.79 in 10.0 mi SSE 11.5 mph - N/A   Clear
6:13 AM 26.6 °F 15.2 °F 19.4 °F 74% 29.76 in 10.0 mi SSE 13.8 mph - N/A   Clear
6:33 AM 26.6 °F 15.2 °F 21.2 °F 80% 29.75 in 10.0 mi South 13.8 mph - N/A   Clear
6:53 AM 28.4 °F 18.0 °F 21.2 °F 74% 29.75 in 10.0 mi South 12.7 mph - N/A   Clear
7:13 AM 28.4 °F 18.0 °F 21.2 °F 74% 29.73 in 10.0 mi South 12.7 mph - N/A   Clear
7:33 AM 32.0 °F 22.1 °F 24.8 °F 75% 29.72 in 10.0 mi South 13.8 mph - N/A   Clear
7:53 AM 30.2 °F 20.2 °F 24.8 °F 80% 29.72 in 10.0 mi South 12.7 mph - N/A   Clear
8:13 AM 30.2 °F 21.3 °F 24.8 °F 80% 29.72 in 10.0 mi South 10.4 mph - N/A   Clear
8:33 AM 32.0 °F 22.5 °F 24.8 °F 75% 29.71 in 10.0 mi South 12.7 mph - N/A   Clear
8:53 AM 33.8 °F 25.8 °F 24.8 °F 70% 29.69 in 10.0 mi South 10.4 mph - N/A   Clear
9:13 AM 33.8 °F 25.3 °F 26.6 °F 75% 29.68 in 10.0 mi South 11.5 mph - N/A   Clear
9:33 AM 33.8 °F 25.3 °F 26.6 °F 75% 29.68 in 10.0 mi South 11.5 mph - N/A   Clear
9:53 AM 33.8 °F 25.3 °F 26.6 °F 75% 29.67 in 10.0 mi South 11.5 mph - N/A   Clear
10:13 AM 33.8 °F 26.4 °F 26.6 °F 75% 29.67 in 10.0 mi South 9.2 mph - N/A   Clear
10:33 AM 33.8 °F 27.0 °F 26.6 °F 75% 29.67 in 10.0 mi South 8.1 mph - N/A   Clear
10:53 AM 35.6 °F 29.9 °F 28.4 °F 75% 29.66 in 10.0 mi SSE 6.9 mph - N/A   Clear
11:13 AM 35.6 °F 29.9 °F 28.4 °F 75% 29.66 in 10.0 mi South 6.9 mph - N/A   Clear
11:32 AM 37.4 °F 31.4 °F 28.4 °F 70% 29.66 in 10.0 mi South 8.1 mph - N/A   Clear
11:53 AM 37.4 °F 32.1 °F 28.4 °F 70% 29.66 in 10.0 mi South 6.9 mph - N/A   Clear
12:13 PM 37.4 °F 32.8 °F 28.4 °F 70% 29.66 in 10.0 mi South 5.8 mph - N/A   Clear
12:32 PM 37.4 °F 34.9 °F 28.4 °F 70% 29.66 in 10.0 mi SSE 3.5 mph - N/A   Clear
12:53 PM 37.4 °F 32.8 °F 30.2 °F 75% 29.65 in 10.0 mi South 5.8 mph - N/A   Clear
1:13 PM 39.2 °F 35.9 °F 30.2 °F 70% 29.65 in 10.0 mi SSW 4.6 mph - N/A   Clear
1:33 PM 39.2 °F 34.2 °F 30.2 °F 70% 29.65 in 10.0 mi SSW 6.9 mph - N/A   Clear
1:53 PM 39.2 °F 35.9 °F 30.2 °F 70% 29.64 in 10.0 mi SW 4.6 mph - N/A   Clear
2:13 PM 39.2 °F 35.0 °F 30.2 °F 70% 29.64 in 10.0 mi SW 5.8 mph - N/A   Clear
2:33 PM 39.2 °F 34.2 °F 30.2 °F 70% 29.63 in 10.0 mi WSW 6.9 mph - N/A   Clear
2:53 PM 39.2 °F 35.0 °F 30.2 °F 70% 29.63 in 10.0 mi WSW 5.8 mph - N/A   Clear
3:13 PM 39.2 °F 34.2 °F 30.2 °F 70% 29.62 in 10.0 mi WSW 6.9 mph - N/A   Clear
3:33 PM 39.2 °F 34.2 °F 30.2 °F 70% 29.61 in 10.0 mi WSW 6.9 mph - N/A   Clear
3:53 PM 41.0 °F 39.0 °F 30.2 °F 65% 29.61 in 10.0 mi West 3.5 mph - N/A   Clear
4:13 PM 41.0 °F 39.0 °F 32.0 °F 70% 29.62 in 10.0 mi West 3.5 mph - N/A   Clear
4:33 PM 41.0 °F - 32.0 °F 70% 29.62 in 10.0 mi Calm Calm - N/A   Clear
4:53 PM 41.0 °F 38.0 °F 32.0 °F 70% 29.63 in 10.0 mi West 4.6 mph - N/A   Clear
5:13 PM 39.2 °F 35.9 °F 32.0 °F 75% 29.62 in 10.0 mi WSW 4.6 mph - N/A   Clear
5:33 PM 41.0 °F - 32.0 °F 70% 29.62 in 10.0 mi Calm Calm - N/A   Clear
5:53 PM 41.0 °F - 33.8 °F 76% 29.62 in 10.0 mi Calm Calm - N/A   Scattered Clouds
6:12 PM 42.8 °F - 33.8 °F 70% 29.62 in 10.0 mi Calm Calm - N/A   Scattered Clouds
6:33 PM 42.8 °F - 33.8 °F 70% 29.62 in 10.0 mi Calm Calm - N/A   Scattered Clouds
6:53 PM 39.2 °F 37.0 °F 33.8 °F 81% 29.62 in 10.0 mi SW 3.5 mph - N/A   Scattered Clouds
7:12 PM 39.2 °F - 32.0 °F 75% 29.62 in 10.0 mi Calm Calm - N/A   Clear
7:33 PM 39.2 °F - 32.0 °F 75% 29.63 in 10.0 mi Calm Calm - N/A   Clear
7:53 PM 39.2 °F 37.0 °F 32.0 °F 75% 29.63 in 10.0 mi SSW 3.5 mph - N/A   Clear
8:13 PM 39.2 °F - 33.8 °F 81% 29.62 in 10.0 mi Calm Calm - N/A   Clear
8:33 PM 39.2 °F 35.9 °F 33.8 °F 81% 29.62 in 10.0 mi SSW 4.6 mph - N/A   Clear
8:53 PM 37.4 °F 33.8 °F 33.8 °F 87% 29.61 in 10.0 mi SSW 4.6 mph - N/A   Clear
9:13 PM 39.2 °F - 33.8 °F 81% 29.61 in 10.0 mi Calm Calm - N/A   Clear
9:33 PM 39.2 °F 37.0 °F 33.8 °F 81% 29.61 in 10.0 mi SSW 3.5 mph - N/A   Scattered Clouds
9:53 PM 37.4 °F 33.8 °F 32.0 °F 81% 29.60 in 10.0 mi South 4.6 mph - N/A   Clear
10:13 PM 35.6 °F 31.7 °F 30.2 °F 81% 29.61 in 10.0 mi South 4.6 mph - N/A   Clear
10:33 PM 37.4 °F - 30.2 °F 75% 29.61 in 10.0 mi Calm Calm - N/A   Clear
10:53 PM 35.6 °F 30.7 °F 30.2 °F 81% 29.61 in 10.0 mi South 5.8 mph - N/A   Clear
11:13 PM 35.6 °F 31.7 °F 30.2 °F 81% 29.61 in 10.0 mi South 4.6 mph - N/A   Clear
11:33 PM 35.6 °F 31.7 °F 30.2 °F 81% 29.60 in 10.0 mi SSE 4.6 mph - N/A   Clear
11:53 PM 35.6 °F 30.7 °F 30.2 °F 81% 29.60 in 10.0 mi South 5.8 mph - N/A   Clear
12:13 AM 35.6 °F 29.9 °F 30.2 °F 81% 29.61 in 10.0 mi SSW 6.9 mph - N/A   Clear
12:33 AM 35.6 °F - 30.2 °F 81% 29.61 in 10.0 mi Calm Calm - N/A   Clear
12:53 AM 37.4 °F 34.9 °F 30.2 °F 75% 29.61 in 10.0 mi WSW 3.5 mph - N/A   Clear